Yakima, WA
on Monday, November 19, 2012

Monday
Previous Day Next Day
Daily Summary
 ActualAverageRecord
Temperature
Mean Temperature °F 36°F  
Max Temperature 57°F 46°F 69°F (1962)
Min Temperature 42°F 26°F 4°F (1985)
Degree Days
Heating Degree Days 15 29  
Month to date heating degree days 407 486  
Since 1 July heating degree days 944 1190  
Cooling Degree Days 0 0  
Month to date cooling degree days 0 0  
Year to date cooling degree days 667 472  
Moisture
Dew Point 41°F   
Average Humidity 74    
Maximum Humidity 89    
Minimum Humidity 59    
Precipitation
Precipitation 0.07 in 0.03 in 1.70 in (1996)
Month to date precipitation 0.55 0.61  
Year to date precipitation 7.08 6.28  
Snow
Snow 0.00 in 0.10 in 14.80 in (1996)
Month to date snowfall 0.8 1.3  
Year to date snowfall 22.3 10.0  
Since 1 July snowfall 0.8 1.4  
Snow Depth 0.00 in   
Wind
Wind Speed 7 mph   
Max Wind Speed 24 mph   
Max Gust Speed 32 mph   
Visibility 10 miles   
Events Rain   

Key: T is trace of precipitation, MM is missing value
Source: NWS Daily Summary
Time(PST)TemperatureDew PointHumidity Pressure Visibility Wind DirectionWind SpeedGust SpeedPrecipitationEvents Conditions
12:53 AM 45.0°F 39.0°F 80% 29.76 in 10.0 miles Calm Calm - 0.04 in Rain Light Rain
1:53 AM 43.0°F 39.9°F 89% 29.75 in 8.0 miles Calm Calm - 0.01 in Rain Light Rain
2:53 AM 43.0°F 39.0°F 86% 29.73 in 10.0 miles Calm Calm - 0.00 in   Partly Cloudy
3:53 AM 46.9°F 39.0°F 74% 29.71 in 10.0 miles SSE 4.6 mph - 0.00 in   Overcast
4:53 AM 46.9°F 39.9°F 77% 29.70 in 10.0 miles ESE 4.6 mph - 0.00 in   Mostly Cloudy
5:53 AM 46.0°F 39.9°F 79% 29.68 in 10.0 miles Calm Calm - 0.00 in Rain Light Rain
6:53 AM 45.0°F 41.0°F 86% 29.68 in 10.0 miles West 4.6 mph - 0.00 in Rain Light Rain
7:53 AM 46.0°F 41.0°F 83% 29.67 in 10.0 miles NW 3.5 mph - 0.01 in Rain Light Rain
8:53 AM 48.9°F 42.1°F 77% 29.65 in 10.0 miles Calm Calm - 0.00 in   Overcast
9:53 AM 50.0°F 42.1°F 74% 29.66 in 10.0 miles West 6.9 mph - N/A   Mostly Cloudy
10:53 AM 51.1°F 44.1°F 77% 29.64 in 10.0 miles WNW 8.1 mph - 0.00 in   Overcast
11:53 AM 51.1°F 43.0°F 74% 29.61 in 10.0 miles WSW 4.6 mph - 0.00 in   Overcast
12:53 PM 55.0°F 42.1°F 62% 29.58 in 10.0 miles SSW 10.4 mph - N/A   Overcast
1:53 PM 57.0°F 43.0°F 59% 29.57 in 10.0 miles South 13.8 mph 23.0 mph 0.00 in Rain Light Rain
2:53 PM 55.9°F 43.0°F 62% 29.56 in 10.0 miles South 15.0 mph 23.0 mph 0.00 in Rain Light Rain
3:53 PM 55.9°F 44.1°F 64% 29.56 in 10.0 miles SSE 15.0 mph - 0.00 in   Mostly Cloudy
4:53 PM 57.0°F 44.1°F 62% 29.58 in 10.0 miles SSW 20.7 mph 32.2 mph N/A   Overcast
5:53 PM 54.0°F 39.9°F 59% 29.63 in 10.0 miles SW 13.8 mph 25.3 mph 0.00 in   Overcast
6:50 PM 51.8°F 39.2°F 62% 29.63 in 10.0 miles West 9.2 mph 20.7 mph 0.00 in   Overcast
6:53 PM 52.0°F 39.9°F 63% 29.64 in 10.0 miles WSW 9.2 mph - 0.00 in   Overcast
7:53 PM 52.0°F 39.9°F 63% 29.70 in 10.0 miles WSW 6.9 mph 17.3 mph 0.00 in Rain Light Rain
8:53 PM 50.0°F 41.0°F 71% 29.68 in 10.0 miles SW 6.9 mph 18.4 mph 0.01 in   Overcast
9:53 PM 51.1°F 41.0°F 68% 29.69 in 10.0 miles SSW 4.6 mph - 0.01 in   Overcast
10:53 PM 51.1°F 41.0°F 68% 29.73 in 10.0 miles WSW 5.8 mph - 0.00 in   Mostly Cloudy
11:53 PM 51.1°F 41.0°F 68% 29.73 in 10.0 miles North - - N/A   Overcast
Moon Phase
Nov. 19 Nov. 20 Nov. 28 Dec. 06 Dec. 13
Sunrise:07:10 AM (PST) Moon Rise:12:07 PM (PST)11/19
Sunset:04:24 PM (PST) Moon Set:11:07 PM (PST)11/19

Copyright © 2014 The Weather Underground, Inc.